#timestamp,LO_Frequency,Hit 
1502535615.6,286047001.4,N
1502535635.5,286047005.4,N
1502535655.3,286047003.5,N
1502535675.1,286046996.9,N
1502535695.9,286046995.4,N
1502535715.7,286046998.3,N
1502535735.5,286046998.9,N
1502535755.4,286046998.6,N
1502535775.2,286047000.7,N
1502535795.0,286047001.1,N
1502535795.9,286047001.1,N
1502535815.8,286046996.7,N
1502535835.2,286046995.3,N
1502535855.1,286046996.5,N
1502535856.0,286046996.5,N
1502535875.8,286046999.5,N
1502535895.6,286046999.0,N
1502535915.5,286046996.6,N
1502535935.3,286046998.9,N
1502535955.1,286047002.6,N
1502535975.8,286047003.6,N
1502535995.7,286047003.8,N
1502536015.5,286047005.5,N
1502536035.1,286047005.5,N
1502536055.9,286047003.5,N
1502536075.7,286046998.5,N
1502536095.5,286046997.8,N
1502536115.4,286046995.5,N
1502536135.2,286046996.3,N
1502536155.0,286046996.3,N
1502536155.9,286046996.3,N
1502536175.8,286046992.7,N
1502536195.6,286046990.5,N
1502536215.4,286046990.4,N
1502536235.2,286046990.1,N
1502536255.1,286046992.9,N
1502536256.0,286046992.9,N
1502536275.8,286046990.5,N
1502536295.6,286046993.2,N
1502536315.5,286046994.7,N
1502536335.3,286046992.4,N
1502536355.1,286046990.6,N
1502536375.9,286046991.2,N
1502536395.7,286046990.1,N
1502536415.5,286046995.8,N
1502536435.4,286046998.0,N
1502536455.2,286046996.4,N
1502536475.0,286046997.5,N
1502536475.9,286046997.5,N
1502536495.8,286046997.1,N
1502536515.6,286046998.6,N
1502536535.4,286046995.3,N
1502536555.3,286046997.8,N
1502536575.1,286047000.9,N
1502536576.0,286047000.9,N
1502536595.8,286047004.3,N
1502536615.7,286047007.6,N
1502536635.5,286047005.5,N
1502536655.3,286047002.0,N
1502536675.1,286046999.5,N
1502536695.9,286046998.3,N
1502536715.7,286046999.4,N
1502536735.6,286046996.6,N
1502536755.4,286046998.0,N
1502536775.2,286046997.5,N
1502536795.1,286047000.5,N
1502536796.0,286047000.5,N
1502536815.8,286047001.0,N
1502536835.6,286047001.1,N
1502536855.4,286046996.6,N
1502536875.3,286046995.5,N
1502536895.1,286046994.1,N
1502536915.8,286046993.8,N
1502536935.7,286046993.5,N
1502536955.5,286046993.9,N
1502536975.3,286046995.1,N
1502536995.2,286046996.2,N
1502537015.9,286046993.3,N
1502537035.7,286046994.1,N
1502537055.6,286046996.3,N
1502537075.4,286046999.6,N
1502537095.2,286046994.5,N
1502537115.1,286046989.8,N
1502537116.0,286046989.8,N
1502537135.8,286046990.1,N
1502537155.6,286046992.8,N
1502537175.5,286046993.0,N
1502537195.3,286046992.0,N
1502537215.1,286046994.6,N
1502537235.8,286046994.1,N
1502537255.7,286046994.8,N
1502537275.5,286046996.2,N
1502537295.3,286046993.5,N
1502537315.3,286046993.6,N
1502537335.1,286046992.8,N
1502537355.8,286046994.1,N
1502537375.7,286046996.3,N
1502537395.5,286046998.0,N
1502537415.3,286046996.1,N
1502537435.2,286046997.8,N
1502537455.9,286047000.2,N
1502537475.7,286047000.1,N
1502537495.6,286047002.5,N
1502537515.4,286047001.7,N
1502537535.2,286047000.6,N
1502537555.1,286047001.2,N
1502537556.0,286047001.2,N
1502537575.8,286046999.2,N
1502537595.6,286046995.6,N
1502537615.4,286046994.9,N
1502537635.3,286046999.6,N
1502537655.1,286047000.8,N
1502537675.8,286047000.8,N
1502537695.7,286047000.4,N
1502537715.5,286046998.1,N
1502537735.3,286047002.1,N
1502537755.2,286047002.3,N
1502537775.9,286046998.6,N
1502537795.4,286047000.5,N
1502537815.3,286046995.9,N
1502537835.1,286046999.9,N
1502537836.0,286046999.9,N
1502537855.8,286046999.8,N
1502537875.7,286047000.1,N
1502537895.5,286046999.1,N
1502537915.3,286046995.0,N
1502537935.1,286046995.0,N
1502537955.9,286046996.6,N
1502537975.7,286046995.0,N
1502537995.5,286046995.6,N
1502538015.4,286046999.7,N
1502538035.2,286047002.2,N
1502538055.0,286047001.7,N
1502538055.9,286047001.7,N
1502538075.8,286047001.3,N
1502538095.6,286046999.7,N
1502538115.4,286046997.6,N
1502538135.3,286046997.2,N
1502538155.1,286046991.9,P
1502538175.8,286046995.9,N
1502538195.7,286046994.0,N
1502538215.5,286046995.7,N
1502538235.3,286046996.3,N
1502538255.2,286046996.3,N
1502538275.9,286046992.2,P
1502538295.7,286046998.6,N
1502538315.6,286047000.0,N
1502538335.4,286047002.3,N
1502538355.2,286047000.8,N
1502538375.1,286046998.8,N
1502538376.0,286046998.8,N
1502538395.8,286047002.6,N
1502538415.6,286047002.5,N
1502538435.5,286046998.1,N
1502538455.3,286046999.4,N
1502538475.1,286046999.1,N
1502538495.9,286047002.3,N
1502538515.7,286046999.9,N
1502538535.5,286046998.6,N
1502538555.3,286047001.4,N
1502538575.2,286047004.0,N
1502538595.0,286047006.9,N
1502538595.9,286047006.9,N
1502538615.7,286047007.6,N
1502538635.6,286047009.5,N
1502538655.4,286047006.3,N
1502538675.2,286047008.4,N
1502538695.1,286047006.2,N
1502538696.0,286047006.2,N
1502538715.8,286047006.0,N
1502538735.6,286047005.7,N
1502538755.5,286047006.7,N
1502538775.3,286047005.3,N
1502538795.1,286047003.1,N
1502538815.9,286047004.2,N
1502538835.7,286047002.6,N
1502538855.5,286047000.1,N
1502538875.3,286047003.6,N
1502538895.2,286047005.4,N
1502538915.0,286047003.6,N
1502538915.9,286047003.6,N
1502538935.7,286047000.9,N
1502538955.6,286046998.5,N
1502538975.4,286046997.9,N
1502538995.2,286046994.2,N
1502539015.1,286046995.1,N
1502539016.0,286046995.1,N
1502539035.8,286046996.2,N
1502539055.6,286046994.2,N
1502539075.5,286046994.3,N
1502539095.3,286046997.4,N
1502539115.1,286046999.5,N
1502539135.9,286046998.7,N
1502539155.7,286046996.3,N
1502539175.5,286046993.3,N
1502539195.4,286046994.1,N
